Benton Harbor, MI

11:26 PM EST on February 23, 2018 (GMT -0500)
Southwest Michigan Regional

Weather History for KBEH - March, 2013

Change the Weather History Date:

Tuesday, March 26, 2013

  Actual Average Record
Temperature  
Mean Temperature 35 °F -  
Max Temperature 37 °F 50 °F 77 °F (1976)
Min Temperature 33 °F 31 °F 12 °F (2014)
Degree Days  
Heating Degree Days 30    
Moisture  
Dew Point 29 °F    
Average Humidity 80    
Maximum Humidity 89    
Minimum Humidity 68    
Precipitation  
Precipitation 0.00 in - - ()
Sea Level Pressure  
Sea Level Pressure 30.13 in    
Wind  
Wind Speed 6 mph (NW)    
Max Wind Speed 12 mph    
Max Gust Speed 22 mph    
Visibility 9 miles    
Events Snow    
Averages and records for this station are not official NWS values.
T = Trace of Precipitation, MM = Missing Value Source: NWS Daily Summary

Daily Weather History Graph

Daily Weather History Graph

Search for Another Location

Airport or City:

Trip Planner

Search our weather history database for the weather conditions in past years. The results will help you decide how hot, cold, wet, or windy it might be!

Date:

Astronomy

Mar. 26, 2013 Rise Set
Actual Time 7:38 AM EDT 8:05 PM EDT
Civil Twilight 7:10 AM EDT 8:33 PM EDT
Nautical Twilight 6:37 AM EDT 9:06 PM EDT
Astronomical Twilight 6:03 AM EDT 9:40 PM EDT
Moon 7:41 PM EDT (3/26) 6:54 AM EDT (3/26)
Length of Visible Light 13h 22m
Length of Day
12h 26m
Waxing Gibbous, 99% of the Moon is Illuminated
Mar 26
Waxing Gibbous
Mar 27
Full
Apr 3
Last Quarter
Apr 10
New
Apr 18
First Quarter

Hourly Weather History & Observations

Time (EDT) Temp. Windchill Dew Point Humidity Pressure Visibility Wind Dir Wind Speed Gust Speed Precip Events Conditions
12:53 AM 35.1 °F 31.0 °F 28.0 °F 76% 30.03 in 10.0 mi Variable 4.6 mph - N/A   Overcast
1:53 AM 34.0 °F 31.0 °F 28.9 °F 82% 30.04 in 10.0 mi Variable 3.5 mph - N/A   Overcast
2:53 AM 34.0 °F 28.0 °F 30.0 °F 85% 30.04 in 10.0 mi North 6.9 mph - N/A   Overcast
3:53 AM 34.0 °F 28.8 °F 30.0 °F 85% 30.05 in 10.0 mi Variable 5.8 mph - N/A   Overcast
4:20 AM 33.8 °F 30.8 °F 30.2 °F 87% 30.03 in 10.0 mi Variable 3.5 mph - N/A   Overcast
4:53 AM 34.0 °F 31.0 °F 28.9 °F 82% 30.05 in 10.0 mi Variable 3.5 mph - N/A   Overcast
5:53 AM 34.0 °F 29.8 °F 28.9 °F 82% 30.06 in 10.0 mi Variable 4.6 mph - N/A   Overcast
6:01 AM 33.8 °F 30.8 °F 28.4 °F 81% 30.04 in 10.0 mi Variable 3.5 mph - N/A   Overcast
6:26 AM 33.8 °F 28.6 °F 28.4 °F 81% 30.05 in 10.0 mi Variable 5.8 mph - N/A   Overcast
7:06 AM 33.8 °F 28.6 °F 30.2 °F 87% 30.06 in 10.0 mi Variable 5.8 mph - N/A   Overcast
7:24 AM 33.8 °F 27.0 °F 30.2 °F 87% 30.07 in 9.0 mi North 8.1 mph - 0.00 in Snow Light Snow
7:53 AM 33.1 °F 26.1 °F 30.0 °F 89% 30.10 in 4.0 mi North 8.1 mph - 0.00 in Snow Light Snow
7:56 AM 33.8 °F 28.6 °F 30.2 °F 87% 30.08 in 1.8 mi Variable 5.8 mph - 0.00 in Snow Light Snow
8:00 AM 33.8 °F 29.6 °F 30.2 °F 87% 30.09 in 0.8 mi Variable 4.6 mph - 0.00 in Snow Light Snow
8:09 AM 33.8 °F 30.8 °F 30.2 °F 87% 30.09 in 1.5 mi Variable 3.5 mph - 0.00 in Snow Light Snow
8:13 AM 33.8 °F 30.8 °F 30.2 °F 87% 30.09 in 2.5 mi NW 3.5 mph - 0.00 in Snow Light Snow
8:27 AM 33.8 °F 30.8 °F 30.2 °F 87% 30.09 in 8.0 mi Variable 3.5 mph - 0.00 in Snow Light Snow
8:53 AM 34.0 °F 28.8 °F 28.9 °F 82% 30.12 in 10.0 mi Variable 5.8 mph - 0.00 in   Overcast
9:53 AM 35.1 °F 30.1 °F 28.0 °F 76% 30.14 in 10.0 mi Variable 5.8 mph - N/A   Overcast
10:50 AM 37.4 °F 30.3 °F 28.4 °F 70% 30.14 in 10.0 mi NW 10.4 mph 16.1 mph N/A   Mostly Cloudy
10:53 AM 36.0 °F 28.5 °F 28.9 °F 76% 30.16 in 10.0 mi NW 10.4 mph - N/A   Scattered Clouds
11:53 AM 37.9 °F 31.5 °F 28.0 °F 68% 30.17 in 10.0 mi NW 9.2 mph 21.9 mph N/A   Scattered Clouds
12:05 PM 37.4 °F 30.8 °F 28.4 °F 70% 30.15 in 10.0 mi NW 9.2 mph 19.6 mph N/A   Mostly Cloudy
12:53 PM 36.0 °F 28.0 °F 28.0 °F 73% 30.17 in 10.0 mi NW 11.5 mph 17.3 mph N/A   Overcast
1:53 PM 36.0 °F 29.6 °F 28.9 °F 76% 30.18 in 10.0 mi NW 8.1 mph 17.3 mph N/A   Overcast
2:53 PM 35.1 °F 27.9 °F 28.0 °F 76% 30.18 in 10.0 mi NW 9.2 mph - N/A   Overcast
3:53 PM 35.1 °F 28.6 °F 28.9 °F 78% 30.18 in 10.0 mi WNW 8.1 mph - N/A   Overcast
4:53 PM 35.1 °F 27.4 °F 28.9 °F 78% 30.18 in 10.0 mi WNW 10.4 mph 16.1 mph N/A   Overcast
5:53 PM 36.0 °F 29.6 °F 28.9 °F 76% 30.19 in 10.0 mi NW 8.1 mph - N/A   Overcast
6:53 PM 35.1 °F 30.1 °F 28.9 °F 78% 30.19 in 10.0 mi NW 5.8 mph - N/A   Overcast
7:53 PM 35.1 °F 31.0 °F 28.9 °F 78% 30.20 in 10.0 mi Variable 4.6 mph - N/A   Overcast
8:53 PM 35.1 °F 32.2 °F 28.9 °F 78% 30.22 in 10.0 mi NW 3.5 mph - N/A   Overcast
9:17 PM 35.6 °F 30.7 °F 28.4 °F 75% 30.20 in 10.0 mi NW 5.8 mph - N/A   Overcast
9:53 PM 35.1 °F 31.0 °F 28.9 °F 78% 30.23 in 10.0 mi NW 4.6 mph - N/A   Overcast
10:53 PM 35.1 °F 31.0 °F 28.9 °F 78% 30.23 in 10.0 mi WNW 4.6 mph - N/A   Overcast
11:53 PM 36.0 °F 31.1 °F 28.9 °F 76% 30.23 in 10.0 mi NW 5.8 mph - N/A   Overcast